Location: Windsor
(43.2292°N, 89.3015°W)
Time: 10:09:48
(UTC+00:00)

Tiros 1 - Pass Details

Date: 02 June 2022
Orbit: 629 x 663 km, 48.4° (Epoch: 04 July)

Event Time Altitude Azimuth Distance (km) Brightness Sun altitude
Rises 03:32:34 0° 220° (SW) 2,903 10.4 -16.8°
Reaches altitude 10° 03:34:58 10° 214° (SSW) 1,997 9.4 -17.1°
Maximum altitude 03:39:17 41° 144° (SE) 905 7.4 -17.5°
Drops below altitude 10° 03:43:38 10° 74° (ENE) 2,008 9.5 -17.9°
Sets 03:46:02 0° 67° (ENE) 2,921 10.4 -18.2°
